Time,TemperatureF,DewpointF,PressureIn,WindDirection,WindDirectionDegrees,WindSpeedMPH,WindSpeedGustMPH,Humidity,HourlyPrecipIn,Conditions,Clouds,dailyrainin,SolarRadiationWatts/m^2,SoftwareType,DateUTC
2013-08-23 00:01:00,56.0,54.0,-100.00,South,189,5.0,10.0,92,0.13,,,0.28,0.000000,,2013-08-23 07:01:00,
2013-08-23 00:12:00,56.0,54.0,-100.00,South,189,5.0,10.0,92,0.13,,,0.28,0.000000,,2013-08-23 07:12:00,
2013-08-23 00:22:00,56.0,54.0,-100.00,South,189,5.0,10.0,92,0.13,,,0.28,0.000000,,2013-08-23 07:22:00,
2013-08-23 00:31:00,57.0,56.0,-100.00,SSW,196,5.0,8.0,96,0.00,,,0.28,0.000000,,2013-08-23 07:31:00,
2013-08-23 00:52:00,57.0,56.0,-100.00,SSW,196,5.0,8.0,96,0.00,,,0.28,0.000000,,2013-08-23 07:52:00,
2013-08-23 01:02:00,57.0,56.0,-100.00,SSW,196,5.0,8.0,96,0.00,,,0.28,0.000000,,2013-08-23 08:02:00,
2013-08-23 01:12:00,57.0,56.0,-100.00,SSW,196,5.0,8.0,96,0.00,,,0.28,0.000000,,2013-08-23 08:12:00,
2013-08-23 01:22:00,57.0,56.0,-100.00,SSW,196,5.0,8.0,96,0.00,,,0.28,0.000000,,2013-08-23 08:22:00,
2013-08-23 01:31:00,55.0,53.0,-100.00,SW,217,2.0,8.0,92,0.00,,,0.28,0.000000,,2013-08-23 08:31:00,
2013-08-23 01:52:00,55.0,53.0,-100.00,SW,217,2.0,8.0,92,0.00,,,0.28,0.000000,,2013-08-23 08:52:00,
2013-08-23 02:01:00,55.0,53.0,-100.00,SW,217,2.0,8.0,92,0.00,,,0.28,0.000000,,2013-08-23 09:01:00,
2013-08-23 02:12:00,55.0,53.0,-100.00,SW,217,2.0,8.0,92,0.00,,,0.28,0.000000,,2013-08-23 09:12:00,
2013-08-23 02:21:00,55.0,53.0,-100.00,SW,217,2.0,8.0,92,0.00,,,0.28,0.000000,,2013-08-23 09:21:00,
2013-08-23 02:31:00,56.0,53.0,-100.00,SSW,211,4.0,7.0,91,0.00,,,0.28,0.000000,,2013-08-23 09:31:00,
2013-08-23 02:53:00,56.0,53.0,-100.00,SSW,211,4.0,7.0,91,0.00,,,0.28,0.000000,,2013-08-23 09:53:00,
2013-08-23 03:03:00,56.0,53.0,-100.00,SSW,211,4.0,7.0,91,0.00,,,0.28,0.000000,,2013-08-23 10:03:00,
2013-08-23 03:13:00,56.0,53.0,-100.00,SSW,211,4.0,7.0,91,0.00,,,0.28,0.000000,,2013-08-23 10:13:00,
2013-08-23 03:22:00,56.0,53.0,-100.00,SSW,211,4.0,7.0,91,0.00,,,0.28,0.000000,,2013-08-23 10:22:00,
2013-08-23 03:31:00,56.0,53.0,-100.00,SSW,205,4.0,8.0,89,0.00,,,0.28,0.000000,,2013-08-23 10:31:00,
2013-08-23 03:53:00,56.0,53.0,-100.00,SSW,205,4.0,8.0,89,0.00,,,0.28,0.000000,,2013-08-23 10:53:00,
2013-08-23 04:02:00,56.0,53.0,-100.00,SSW,205,4.0,8.0,89,0.00,,,0.28,0.000000,,2013-08-23 11:02:00,
2013-08-23 04:11:00,56.0,53.0,-100.00,SSW,205,4.0,8.0,89,0.00,,,0.28,0.000000,,2013-08-23 11:11:00,
2013-08-23 04:22:00,56.0,53.0,-100.00,SSW,205,4.0,8.0,89,0.00,,,0.28,0.000000,,2013-08-23 11:22:00,
2013-08-23 04:31:00,56.0,52.0,-100.00,SSW,200,5.0,10.0,86,0.00,,,0.28,0.000000,,2013-08-23 11:31:00,
2013-08-23 04:53:00,56.0,52.0,-100.00,SSW,200,5.0,10.0,86,0.00,,,0.28,0.000000,,2013-08-23 11:53:00,
2013-08-23 05:01:00,56.0,52.0,-100.00,SSW,200,5.0,10.0,86,0.00,,,0.28,0.000000,,2013-08-23 12:01:00,
2013-08-23 05:11:00,56.0,52.0,-100.00,SSW,200,5.0,10.0,86,0.00,,,0.28,0.000000,,2013-08-23 12:11:00,
2013-08-23 05:22:00,56.0,52.0,-100.00,SSW,200,5.0,10.0,86,0.00,,,0.28,0.000000,,2013-08-23 12:22:00,
2013-08-23 05:31:00,57.0,53.0,-100.00,South,190,5.0,10.0,87,0.00,,,0.28,0.000000,,2013-08-23 12:31:00,
2013-08-23 05:52:00,57.0,53.0,-100.00,South,190,5.0,10.0,87,0.00,,,0.28,0.000000,,2013-08-23 12:52:00,
2013-08-23 06:02:00,57.0,53.0,-100.00,South,190,5.0,10.0,87,0.00,,,0.28,0.000000,,2013-08-23 13:02:00,
2013-08-23 06:11:00,57.0,53.0,-100.00,South,190,5.0,10.0,87,0.00,,,0.28,0.000000,,2013-08-23 13:11:00,
2013-08-23 06:22:00,57.0,53.0,-100.00,South,190,5.0,10.0,87,0.00,,,0.28,0.000000,,2013-08-23 13:22:00,
2013-08-23 06:31:00,57.0,54.0,-100.00,South,190,7.0,13.0,89,0.00,,,0.28,1.000000,,2013-08-23 13:31:00,
2013-08-23 06:52:00,57.0,54.0,-100.00,South,190,7.0,13.0,89,0.00,,,0.28,1.000000,,2013-08-23 13:52:00,
2013-08-23 07:02:00,57.0,54.0,-100.00,South,190,7.0,13.0,89,0.00,,,0.28,1.000000,,2013-08-23 14:02:00,
2013-08-23 07:12:00,57.0,54.0,-100.00,South,190,7.0,13.0,89,0.00,,,0.28,1.000000,,2013-08-23 14:12:00,
2013-08-23 07:21:00,57.0,54.0,-100.00,South,190,7.0,13.0,89,0.00,,,0.28,1.000000,,2013-08-23 14:21:00,
2013-08-23 07:31:00,58.0,53.0,-100.00,South,176,7.0,14.0,83,0.00,,,0.28,27.000000,,2013-08-23 14:31:00,
2013-08-23 07:52:00,58.0,53.0,-100.00,South,176,7.0,14.0,83,0.00,,,0.28,27.000000,,2013-08-23 14:52:00,
2013-08-23 08:01:00,58.0,53.0,-100.00,South,176,7.0,14.0,83,0.00,,,0.28,27.000000,,2013-08-23 15:01:00,
2013-08-23 08:11:00,58.0,53.0,-100.00,South,176,7.0,14.0,83,0.00,,,0.28,27.000000,,2013-08-23 15:11:00,
2013-08-23 08:22:00,58.0,53.0,-100.00,South,176,7.0,14.0,83,0.00,,,0.28,27.000000,,2013-08-23 15:22:00,
2013-08-23 08:31:00,61.0,53.0,-100.00,SSE,157,8.0,13.0,76,0.00,,,0.28,230.000000,,2013-08-23 15:31:00,
2013-08-23 08:54:00,61.0,53.0,-100.00,SSE,157,8.0,13.0,76,0.00,,,0.28,230.000000,,2013-08-23 15:54:00,
2013-08-23 09:05:00,61.0,53.0,-100.00,SSE,157,8.0,13.0,76,0.00,,,0.28,230.000000,,2013-08-23 16:05:00,
2013-08-23 09:13:00,61.0,53.0,-100.00,SSE,157,8.0,13.0,76,0.00,,,0.28,230.000000,,2013-08-23 16:13:00,
2013-08-23 09:24:00,61.0,53.0,-100.00,SSE,157,8.0,13.0,76,0.00,,,0.28,230.000000,,2013-08-23 16:24:00,
2013-08-23 09:31:00,65.0,55.0,-100.00,SSE,162,7.0,13.0,69,0.00,,,0.28,425.000000,,2013-08-23 16:31:00,
2013-08-23 09:53:00,65.0,55.0,-100.00,SSE,162,7.0,13.0,69,0.00,,,0.28,425.000000,,2013-08-23 16:53:00,
2013-08-23 10:03:00,65.0,55.0,-100.00,SSE,162,7.0,13.0,69,0.00,,,0.28,425.000000,,2013-08-23 17:03:00,
2013-08-23 10:13:00,65.0,55.0,-100.00,SSE,162,7.0,13.0,69,0.00,,,0.28,425.000000,,2013-08-23 17:13:00,
2013-08-23 10:23:00,65.0,55.0,-100.00,SSE,162,7.0,13.0,69,0.00,,,0.28,425.000000,,2013-08-23 17:23:00,
2013-08-23 10:31:00,69.0,55.0,-100.00,South,190,6.0,12.0,62,0.00,,,0.28,579.000000,,2013-08-23 17:31:00,
2013-08-23 10:53:00,69.0,55.0,-100.00,South,190,6.0,12.0,62,0.00,,,0.28,579.000000,,2013-08-23 17:53:00,
2013-08-23 11:02:00,69.0,55.0,-100.00,South,190,6.0,12.0,62,0.00,,,0.28,579.000000,,2013-08-23 18:02:00,
2013-08-23 11:12:00,69.0,55.0,-100.00,South,190,6.0,12.0,62,0.00,,,0.28,579.000000,,2013-08-23 18:12:00,
2013-08-23 11:22:00,69.0,55.0,-100.00,South,190,6.0,12.0,62,0.00,,,0.28,579.000000,,2013-08-23 18:22:00,
2013-08-23 11:31:00,72.0,52.0,-100.00,SW,227,6.0,13.0,50,0.00,,,0.28,657.000000,,2013-08-23 18:31:00,
2013-08-23 11:52:00,72.0,52.0,-100.00,SW,227,6.0,13.0,50,0.00,,,0.28,657.000000,,2013-08-23 18:52:00,
2013-08-23 12:01:00,72.0,52.0,-100.00,SW,227,6.0,13.0,50,0.00,,,0.28,657.000000,,2013-08-23 19:01:00,
2013-08-23 12:11:00,72.0,52.0,-100.00,SW,227,6.0,13.0,50,0.00,,,0.28,657.000000,,2013-08-23 19:11:00,
2013-08-23 12:22:00,72.0,52.0,-100.00,SW,227,6.0,13.0,50,0.00,,,0.28,657.000000,,2013-08-23 19:22:00,
2013-08-23 12:31:00,75.0,52.0,-100.00,WSW,256,5.0,16.0,44,0.00,,,0.28,778.000000,,2013-08-23 19:31:00,
2013-08-23 12:52:00,75.0,52.0,-100.00,WSW,256,5.0,16.0,44,0.00,,,0.28,778.000000,,2013-08-23 19:52:00,
2013-08-23 13:02:00,75.0,52.0,-100.00,WSW,256,5.0,16.0,44,0.00,,,0.28,778.000000,,2013-08-23 20:02:00,
2013-08-23 13:12:00,75.0,52.0,-100.00,WSW,256,5.0,16.0,44,0.00,,,0.28,778.000000,,2013-08-23 20:12:00,
2013-08-23 13:22:00,75.0,52.0,-100.00,WSW,256,5.0,16.0,44,0.00,,,0.28,778.000000,,2013-08-23 20:22:00,
2013-08-23 13:31:00,74.0,51.0,-100.00,WSW,244,6.0,14.0,44,0.00,,,0.28,607.000000,,2013-08-23 20:31:00,
2013-08-23 13:52:00,74.0,51.0,-100.00,WSW,244,6.0,14.0,44,0.00,,,0.28,607.000000,,2013-08-23 20:52:00,
2013-08-23 14:02:00,74.0,51.0,-100.00,WSW,244,6.0,14.0,44,0.00,,,0.28,607.000000,,2013-08-23 21:02:00,
2013-08-23 14:11:00,74.0,51.0,-100.00,WSW,244,6.0,14.0,44,0.00,,,0.28,607.000000,,2013-08-23 21:11:00,
2013-08-23 14:21:00,74.0,51.0,-100.00,WSW,244,6.0,14.0,44,0.00,,,0.28,607.000000,,2013-08-23 21:21:00,
2013-08-23 14:31:00,75.0,51.0,-100.00,WSW,238,5.0,16.0,43,0.00,,,0.28,579.000000,,2013-08-23 21:31:00,
2013-08-23 14:54:00,75.0,51.0,-100.00,WSW,238,5.0,16.0,43,0.00,,,0.28,579.000000,,2013-08-23 21:54:00,
2013-08-23 15:04:00,75.0,51.0,-100.00,WSW,238,5.0,16.0,43,0.00,,,0.28,579.000000,,2013-08-23 22:04:00,
2013-08-23 15:13:00,75.0,51.0,-100.00,WSW,238,5.0,16.0,43,0.00,,,0.28,579.000000,,2013-08-23 22:13:00,
2013-08-23 15:24:00,75.0,51.0,-100.00,WSW,238,5.0,16.0,43,0.00,,,0.28,579.000000,,2013-08-23 22:24:00,
2013-08-23 15:31:00,77.0,53.0,-100.00,WSW,245,7.0,13.0,43,0.00,,,0.28,692.000000,,2013-08-23 22:31:00,
2013-08-23 15:53:00,77.0,53.0,-100.00,WSW,245,7.0,13.0,43,0.00,,,0.28,692.000000,,2013-08-23 22:53:00,
2013-08-23 16:03:00,77.0,53.0,-100.00,WSW,245,7.0,13.0,43,0.00,,,0.28,692.000000,,2013-08-23 23:03:00,
2013-08-23 16:12:00,77.0,53.0,-100.00,WSW,245,7.0,13.0,43,0.00,,,0.28,692.000000,,2013-08-23 23:12:00,
2013-08-23 16:22:00,77.0,53.0,-100.00,WSW,245,7.0,13.0,43,0.00,,,0.28,692.000000,,2013-08-23 23:22:00,
2013-08-23 16:31:00,77.0,49.0,-100.00,SW,227,7.0,17.0,38,0.00,,,0.26,683.000000,,2013-08-23 23:31:00,
2013-08-23 16:54:00,77.0,49.0,-100.00,SW,227,7.0,17.0,38,0.00,,,0.26,683.000000,,2013-08-23 23:54:00,
2013-08-23 17:02:00,77.0,49.0,-100.00,SW,227,7.0,17.0,38,0.00,,,0.26,683.000000,,2013-08-24 00:02:00,
2013-08-23 17:11:00,77.0,49.0,-100.00,SW,227,7.0,17.0,38,0.00,,,0.26,683.000000,,2013-08-24 00:11:00,
2013-08-23 17:21:00,77.0,49.0,-100.00,SW,227,7.0,17.0,38,0.00,,,0.26,683.000000,,2013-08-24 00:21:00,
2013-08-23 17:31:00,74.0,48.0,-100.00,WSW,258,8.0,17.0,40,0.00,,,0.25,468.000000,,2013-08-24 00:31:00,
2013-08-23 18:11:00,74.0,48.0,-100.00,WSW,258,8.0,17.0,40,0.00,,,0.25,468.000000,,2013-08-24 01:11:00,
2013-08-23 18:22:00,74.0,48.0,-100.00,WSW,258,8.0,17.0,40,0.00,,,0.25,468.000000,,2013-08-24 01:22:00,
2013-08-23 18:31:00,71.0,49.0,-100.00,WSW,251,9.0,16.0,45,0.00,,,0.25,220.000000,,2013-08-24 01:31:00,
2013-08-23 18:53:00,71.0,49.0,-100.00,WSW,251,9.0,16.0,45,0.00,,,0.25,220.000000,,2013-08-24 01:53:00,
2013-08-23 19:02:00,71.0,49.0,-100.00,WSW,251,9.0,16.0,45,0.00,,,0.25,220.000000,,2013-08-24 02:02:00,
2013-08-23 19:11:00,71.0,49.0,-100.00,WSW,251,9.0,16.0,45,0.00,,,0.25,220.000000,,2013-08-24 02:11:00,
2013-08-23 19:22:00,71.0,49.0,-100.00,WSW,251,9.0,16.0,45,0.00,,,0.25,220.000000,,2013-08-24 02:22:00,
2013-08-23 19:31:00,66.0,48.0,-100.00,SSW,212,5.0,14.0,53,0.00,,,0.25,54.000000,,2013-08-24 02:31:00,
2013-08-23 19:52:00,66.0,48.0,-100.00,SSW,212,5.0,14.0,53,0.00,,,0.25,54.000000,,2013-08-24 02:52:00,
2013-08-23 20:02:00,66.0,48.0,-100.00,SSW,212,5.0,14.0,53,0.00,,,0.25,54.000000,,2013-08-24 03:02:00,
2013-08-23 20:12:00,66.0,48.0,-100.00,SSW,212,5.0,14.0,53,0.00,,,0.25,54.000000,,2013-08-24 03:12:00,
2013-08-23 20:22:00,66.0,48.0,-100.00,SSW,212,5.0,14.0,53,0.00,,,0.25,54.000000,,2013-08-24 03:22:00,
2013-08-23 20:31:00,62.0,47.0,-100.00,SSW,209,4.0,16.0,58,0.00,,,0.25,4.000000,,2013-08-24 03:31:00,
2013-08-23 20:55:00,62.0,47.0,-100.00,SSW,209,4.0,16.0,58,0.00,,,0.25,4.000000,,2013-08-24 03:55:00,
2013-08-23 21:04:00,62.0,47.0,-100.00,SSW,209,4.0,16.0,58,0.00,,,0.25,4.000000,,2013-08-24 04:04:00,
2013-08-23 21:14:00,62.0,47.0,-100.00,SSW,209,4.0,16.0,58,0.00,,,0.25,4.000000,,2013-08-24 04:14:00,
2013-08-23 21:24:00,62.0,47.0,-100.00,SSW,209,4.0,16.0,58,0.00,,,0.25,4.000000,,2013-08-24 04:24:00,
2013-08-23 21:31:00,62.0,48.0,-100.00,SW,217,5.0,13.0,60,0.00,,,0.25,0.000000,,2013-08-24 04:31:00,
2013-08-23 21:53:00,62.0,48.0,-100.00,SW,217,5.0,13.0,60,0.00,,,0.25,0.000000,,2013-08-24 04:53:00,
2013-08-23 22:03:00,62.0,48.0,-100.00,SW,217,5.0,13.0,60,0.00,,,0.25,0.000000,,2013-08-24 05:03:00,
2013-08-23 22:13:00,62.0,48.0,-100.00,SW,217,5.0,13.0,60,0.00,,,0.25,0.000000,,2013-08-24 05:13:00,
2013-08-23 22:23:00,62.0,48.0,-100.00,SW,217,5.0,13.0,60,0.00,,,0.25,0.000000,,2013-08-24 05:23:00,
2013-08-23 22:31:00,59.0,48.0,-100.00,South,186,7.0,14.0,66,0.00,,,0.13,0.000000,,2013-08-24 05:31:00,
2013-08-23 22:53:00,59.0,48.0,-100.00,South,186,7.0,14.0,66,0.00,,,0.13,0.000000,,2013-08-24 05:53:00,
2013-08-23 23:02:00,59.0,48.0,-100.00,South,186,7.0,14.0,66,0.00,,,0.13,0.000000,,2013-08-24 06:02:00,
2013-08-23 23:12:00,59.0,48.0,-100.00,South,186,7.0,14.0,66,0.00,,,0.13,0.000000,,2013-08-24 06:12:00,
2013-08-23 23:21:00,59.0,48.0,-100.00,South,186,7.0,14.0,66,0.00,,,0.13,0.000000,,2013-08-24 06:21:00,
2013-08-23 23:31:00,58.0,49.0,-100.00,SSW,193,7.0,12.0,72,0.00,,,0.00,0.000000,,2013-08-24 06:31:00,
2013-08-23 23:52:00,58.0,49.0,-100.00,SSW,193,7.0,12.0,72,0.00,,,0.00,0.000000,,2013-08-24 06:52:00,